Вернуться в каталог

STARLINK-3723

АктивенСвязьVLEO
NORAD 52138·PAYLOAD·🇺🇸 United States

Запущен Mar 19, 2022 с Cape Canaveral Space Force Station

Loading…

Ближайшие Пролёты (ближайшие 24 часа)

TLE

СвежийSource: CelesTrak SupGP

Эпоха: Sep 15, 2026, 01:30 UTC

1 52138C 22029BC  26258.06298611  .00012375  00000+0  37559-3 0  2587
2 52138  53.1590 294.9285 0001266  94.6120 350.8410 15.33536143    16

Отслеживайте STARLINK-3723 в реальном времени с AllMySat

Download on the App Store